Time,TemperatureF,DewpointF,PressureIn,WindDirection,WindDirectionDegrees,WindSpeedMPH,WindSpeedGustMPH,Humidity,HourlyPrecipIn,Conditions,Clouds,dailyrainin,SoftwareType,DateUTC
2013-04-18 00:00:00,51.1,17.4,17.72,NE,50,0.0,0.0,26,0.00,,---,0.00,VWS V12.07,2013-04-18 04:00:00,
2013-04-18 00:03:00,51.1,17.4,17.72,NE,49,0.0,0.0,26,0.00,,---,0.00,VWS V12.07,2013-04-18 04:03:00,
2013-04-18 00:09:00,51.1,17.4,17.72,NE,50,0.0,0.0,26,0.00,,---,0.00,VWS V12.07,2013-04-18 04:09:00,
2013-04-18 00:12:00,51.1,17.4,17.72,NE,50,0.0,0.0,26,0.00,,---,0.00,VWS V12.07,2013-04-18 04:12:00,
2013-04-18 00:18:00,50.9,17.2,17.72,NE,49,0.0,0.0,26,0.00,,---,0.00,VWS V12.07,2013-04-18 04:18:00,
2013-04-18 00:21:00,50.9,17.2,17.72,NE,49,0.0,0.0,26,0.00,,---,0.00,VWS V12.07,2013-04-18 04:21:00,
2013-04-18 00:27:00,50.4,16.8,17.72,NE,49,0.0,0.0,26,0.00,,---,0.00,VWS V12.07,2013-04-18 04:27:00,
2013-04-18 00:33:00,50.2,16.6,17.72,NE,49,0.0,0.0,26,0.00,,---,0.00,VWS V12.07,2013-04-18 04:33:00,
2013-04-18 00:39:00,49.5,16.9,17.72,NE,49,0.0,0.0,27,0.00,,---,0.00,VWS V12.07,2013-04-18 04:39:00,
2013-04-18 00:45:00,49.1,16.6,17.72,NE,49,0.0,0.0,27,0.00,,---,0.00,VWS V12.07,2013-04-18 04:45:00,
2013-04-18 00:51:00,48.9,16.4,17.72,NE,49,0.0,0.0,27,0.00,,---,0.00,VWS V12.07,2013-04-18 04:51:00,
2013-04-18 00:57:00,48.6,16.1,17.72,NE,49,0.0,0.0,27,0.00,,---,0.00,VWS V12.07,2013-04-18 04:57:00,
2013-04-18 01:03:00,48.6,16.1,17.72,NE,49,0.0,0.0,27,0.00,,---,0.00,VWS V12.07,2013-04-18 05:03:00,
2013-04-18 01:09:00,48.6,16.1,17.72,NE,49,0.0,0.0,27,0.00,,---,0.00,VWS V12.07,2013-04-18 05:09:00,
2013-04-18 01:15:00,48.6,16.1,17.72,NE,49,0.0,0.0,27,0.00,,---,0.00,VWS V12.07,2013-04-18 05:15:00,
2013-04-18 01:21:00,48.4,16.0,17.72,NE,49,0.0,0.0,27,0.00,,---,0.00,VWS V12.07,2013-04-18 05:21:00,
2013-04-18 01:27:00,48.2,15.8,17.72,NE,49,0.0,0.0,27,0.00,,---,0.00,VWS V12.07,2013-04-18 05:27:00,
2013-04-18 01:33:00,48.2,15.8,17.72,NE,50,0.0,0.0,27,0.00,,---,0.00,VWS V12.07,2013-04-18 05:33:00,
2013-04-18 01:41:00,48.0,16.5,17.72,NE,49,0.0,0.0,28,0.00,,---,0.00,VWS V12.07,2013-04-18 05:41:00,
2013-04-18 01:47:00,48.0,16.5,17.72,NE,49,0.0,0.0,28,0.00,,---,0.00,VWS V12.07,2013-04-18 05:47:00,
2013-04-18 01:53:00,47.7,16.2,17.72,NE,49,0.0,0.0,28,0.00,,---,0.00,VWS V12.07,2013-04-18 05:53:00,
2013-04-18 01:59:00,47.5,16.0,17.72,NE,49,0.0,0.0,28,0.00,,---,0.00,VWS V12.07,2013-04-18 05:59:00,
2013-04-18 02:05:00,47.3,15.9,17.72,NE,49,0.0,0.0,28,0.00,,---,0.00,VWS V12.07,2013-04-18 06:05:00,
2013-04-18 02:11:00,47.3,15.9,17.72,NE,49,0.0,0.0,28,0.00,,---,0.00,VWS V12.07,2013-04-18 06:11:00,
2013-04-18 02:17:00,47.3,15.0,17.72,NE,49,0.0,0.0,27,0.00,,---,0.00,VWS V12.07,2013-04-18 06:17:00,
2013-04-18 02:23:00,47.1,14.9,17.72,NE,49,0.0,0.0,27,0.00,,---,0.00,VWS V12.07,2013-04-18 06:23:00,
2013-04-18 02:29:00,47.1,15.7,17.72,NE,49,0.0,0.0,28,0.00,,---,0.00,VWS V12.07,2013-04-18 06:29:00,
2013-04-18 02:35:00,46.9,15.6,17.72,NE,49,0.0,0.0,28,0.00,,---,0.00,VWS V12.07,2013-04-18 06:35:00,
2013-04-18 02:41:00,46.9,15.6,17.72,NE,49,0.0,0.0,28,0.00,,---,0.00,VWS V12.07,2013-04-18 06:41:00,
2013-04-18 02:47:00,47.1,14.9,17.72,NE,50,0.0,2.2,27,0.00,,---,0.00,VWS V12.07,2013-04-18 06:47:00,
2013-04-18 02:53:00,47.1,14.9,17.72,NE,52,0.0,3.1,27,0.00,,---,0.00,VWS V12.07,2013-04-18 06:53:00,
2013-04-18 02:59:00,47.3,15.0,17.72,NE,52,3.1,3.1,27,0.00,,---,0.00,VWS V12.07,2013-04-18 06:59:00,
2013-04-18 03:05:00,47.3,15.0,17.72,NE,40,3.1,4.0,27,0.00,,---,0.00,VWS V12.07,2013-04-18 07:05:00,
2013-04-18 03:11:00,47.5,15.2,17.72,NE,40,0.0,4.0,27,0.00,,---,0.00,VWS V12.07,2013-04-18 07:11:00,
2013-04-18 03:16:00,47.5,15.2,17.72,NE,41,0.0,0.0,27,0.00,,---,0.00,VWS V12.07,2013-04-18 07:16:00,
2013-04-18 03:22:00,47.5,15.2,17.72,NE,40,0.0,0.0,27,0.00,,---,0.00,VWS V12.07,2013-04-18 07:22:00,
2013-04-18 03:28:00,47.5,15.2,17.72,NE,40,0.0,0.0,27,0.00,,---,0.00,VWS V12.07,2013-04-18 07:28:00,
2013-04-18 03:34:00,47.3,15.0,17.72,NE,40,0.0,2.7,27,0.00,,---,0.00,VWS V12.07,2013-04-18 07:34:00,
2013-04-18 03:39:00,47.3,15.0,17.72,NE,41,0.0,2.7,27,0.00,,---,0.00,VWS V12.07,2013-04-18 07:39:00,
2013-04-18 03:44:00,47.3,15.0,17.72,NE,40,0.0,0.0,27,0.00,,---,0.00,VWS V12.07,2013-04-18 07:44:00,
2013-04-18 03:50:00,47.1,14.9,17.72,NE,40,0.0,0.0,27,0.00,,---,0.00,VWS V12.07,2013-04-18 07:50:00,
2013-04-18 03:55:00,47.1,14.9,17.72,NE,41,0.0,0.0,27,0.00,,---,0.00,VWS V12.07,2013-04-18 07:55:00,
2013-04-18 04:00:00,46.9,14.7,17.72,NE,41,0.0,0.0,27,0.00,,---,0.00,VWS V12.07,2013-04-18 08:00:00,
2013-04-18 04:06:00,46.8,14.6,17.72,NE,40,0.0,0.0,27,0.00,,---,0.00,VWS V12.07,2013-04-18 08:06:00,
2013-04-18 04:11:00,46.6,14.4,17.72,NE,40,0.0,0.0,27,0.00,,---,0.00,VWS V12.07,2013-04-18 08:11:00,
2013-04-18 04:16:00,46.4,14.2,17.72,NE,40,0.0,0.0,27,0.00,,---,0.00,VWS V12.07,2013-04-18 08:16:00,
2013-04-18 04:22:00,46.4,14.2,17.72,NE,40,0.0,0.0,27,0.00,,---,0.00,VWS V12.07,2013-04-18 08:22:00,
2013-04-18 04:27:00,46.2,14.9,17.72,NE,40,0.0,0.0,28,0.00,,---,0.00,VWS V12.07,2013-04-18 08:27:00,
2013-04-18 04:32:00,46.0,14.8,17.72,NE,40,0.0,0.0,28,0.00,,---,0.00,VWS V12.07,2013-04-18 08:32:00,
2013-04-18 04:37:00,45.9,14.6,17.72,NE,40,0.0,0.0,28,0.00,,---,0.00,VWS V12.07,2013-04-18 08:37:00,
2013-04-18 04:42:00,45.9,14.6,17.72,NE,41,0.0,0.0,28,0.00,,---,0.00,VWS V12.07,2013-04-18 08:42:00,
2013-04-18 04:47:00,45.7,14.5,17.72,NE,40,0.0,0.0,28,0.00,,---,0.00,VWS V12.07,2013-04-18 08:47:00,
2013-04-18 04:53:00,45.5,14.3,17.72,NE,41,0.0,0.0,28,0.00,,---,0.00,VWS V12.07,2013-04-18 08:53:00,
2013-04-18 04:58:00,45.3,14.1,17.72,NE,40,0.0,0.0,28,0.00,,---,0.00,VWS V12.07,2013-04-18 08:58:00,
2013-04-18 05:03:00,45.1,14.0,17.72,NE,40,0.0,0.0,28,0.00,,---,0.00,VWS V12.07,2013-04-18 09:03:00,
2013-04-18 05:10:00,44.8,13.7,17.72,NE,40,0.0,0.0,28,0.00,,---,0.00,VWS V12.07,2013-04-18 09:10:00,
2013-04-18 05:15:00,44.6,13.5,17.72,NE,40,0.0,0.0,28,0.00,,---,0.00,VWS V12.07,2013-04-18 09:15:00,
2013-04-18 05:21:00,44.6,13.5,17.72,NE,40,0.0,0.0,28,0.00,,---,0.00,VWS V12.07,2013-04-18 09:21:00,
2013-04-18 05:27:00,44.4,13.4,17.72,NE,41,0.0,0.0,28,0.00,,---,0.00,VWS V12.07,2013-04-18 09:27:00,
2013-04-18 05:33:00,44.2,13.2,17.72,NE,40,0.0,0.0,28,0.00,,---,0.00,VWS V12.07,2013-04-18 09:33:00,
2013-04-18 05:39:00,44.2,13.2,17.72,NE,40,0.0,0.0,28,0.00,,---,0.00,VWS V12.07,2013-04-18 09:39:00,
2013-04-18 05:45:00,44.1,13.1,17.72,NE,41,0.0,0.0,28,0.00,,---,0.00,VWS V12.07,2013-04-18 09:45:00,
2013-04-18 05:51:00,44.1,13.1,17.72,NE,41,0.0,0.0,28,0.00,,---,0.00,VWS V12.07,2013-04-18 09:51:00,
2013-04-18 05:57:00,44.1,13.1,17.72,NE,40,0.0,0.0,28,0.00,,---,0.00,VWS V12.07,2013-04-18 09:57:00,
2013-04-18 06:03:00,44.2,13.2,17.72,NE,41,0.0,0.0,28,0.00,,---,0.00,VWS V12.07,2013-04-18 10:03:00,
2013-04-18 06:09:00,44.2,13.2,17.72,NE,40,0.0,3.1,28,0.00,,---,0.00,VWS V12.07,2013-04-18 10:09:00,
2013-04-18 06:15:00,44.2,13.2,17.72,NE,40,0.0,0.0,28,0.00,,---,0.00,VWS V12.07,2013-04-18 10:15:00,
2013-04-18 06:20:00,44.4,13.4,17.72,NE,40,0.0,0.0,28,0.00,,---,0.00,VWS V12.07,2013-04-18 10:20:00,
2013-04-18 06:26:00,44.6,13.5,17.72,NE,40,0.0,0.0,28,0.00,,---,0.00,VWS V12.07,2013-04-18 10:26:00,
2013-04-18 06:33:00,44.8,13.7,17.72,ENE,72,0.0,0.0,28,0.00,,---,0.00,VWS V12.07,2013-04-18 10:33:00,
2013-04-18 06:38:00,45.1,14.0,17.72,East,82,0.0,4.0,28,0.00,,---,0.00,VWS V12.07,2013-04-18 10:38:00,
2013-04-18 06:44:00,45.5,14.3,17.72,ENE,62,3.6,3.6,28,0.00,,---,0.00,VWS V12.07,2013-04-18 10:44:00,
2013-04-18 06:50:00,46.2,14.9,17.72,NE,55,2.2,4.9,28,0.00,,---,0.00,VWS V12.07,2013-04-18 10:50:00,
2013-04-18 06:56:00,46.8,14.6,17.72,East,85,0.0,4.9,27,0.00,,---,0.00,VWS V12.07,2013-04-18 10:56:00,
2013-04-18 07:02:00,47.1,14.9,17.72,ENE,60,2.7,6.3,27,0.00,,---,0.00,VWS V12.07,2013-04-18 11:02:00,
2013-04-18 07:08:00,47.5,15.2,17.72,ESE,104,0.0,6.3,27,0.00,,---,0.00,VWS V12.07,2013-04-18 11:08:00,
2013-04-18 07:14:00,47.7,15.3,17.72,ENE,63,0.0,0.0,27,0.00,,---,0.00,VWS V12.07,2013-04-18 11:14:00,
2013-04-18 07:20:00,48.2,15.8,17.72,SE,134,0.0,4.9,27,0.00,,---,0.00,VWS V12.07,2013-04-18 11:20:00,
2013-04-18 07:26:00,48.4,16.0,17.72,ENE,72,3.1,6.3,27,0.00,,---,0.00,VWS V12.07,2013-04-18 11:26:00,
2013-04-18 07:32:00,48.6,16.1,17.72,SE,138,3.6,5.4,27,0.00,,---,0.00,VWS V12.07,2013-04-18 11:32:00,
2013-04-18 07:38:00,48.7,16.3,17.72,ENE,64,5.8,6.3,27,0.00,,---,0.00,VWS V12.07,2013-04-18 11:38:00,
2013-04-18 07:44:00,48.9,16.4,17.72,ENE,78,7.6,7.6,27,0.00,,---,0.00,VWS V12.07,2013-04-18 11:44:00,
2013-04-18 07:50:00,49.1,16.6,17.72,East,82,6.3,8.1,27,0.00,,---,0.00,VWS V12.07,2013-04-18 11:50:00,
2013-04-18 07:59:00,49.1,16.6,17.72,ENE,69,4.0,4.9,27,0.00,,---,0.00,VWS V12.07,2013-04-18 11:59:00,
2013-04-18 08:05:00,49.5,16.9,17.72,ENE,67,4.0,7.6,27,0.00,,---,0.00,VWS V12.07,2013-04-18 12:05:00,
2013-04-18 08:14:00,49.8,16.3,17.72,NE,41,6.3,8.3,26,0.00,,---,0.00,VWS V12.07,2013-04-18 12:14:00,
2013-04-18 08:20:00,50.0,16.5,17.72,East,100,5.8,8.3,26,0.00,,---,0.00,VWS V12.07,2013-04-18 12:20:00,
2013-04-18 08:26:00,50.5,17.0,17.72,ENE,57,3.6,8.3,26,0.00,,---,0.00,VWS V12.07,2013-04-18 12:26:00,
2013-04-18 08:32:00,51.3,17.6,17.72,ENE,78,7.6,9.6,26,0.00,,---,0.00,VWS V12.07,2013-04-18 12:32:00,
2013-04-18 08:38:00,51.3,17.6,17.72,ENE,73,8.1,9.6,26,0.00,,---,0.00,VWS V12.07,2013-04-18 12:38:00,
2013-04-18 08:44:00,51.3,17.6,17.72,ENE,70,5.8,5.8,26,0.00,,---,0.00,VWS V12.07,2013-04-18 12:44:00,
2013-04-18 08:50:00,51.8,18.0,17.72,ENE,65,2.7,6.7,26,0.00,,---,0.00,VWS V12.07,2013-04-18 12:50:00,
2013-04-18 08:56:00,52.2,18.3,17.72,ENE,71,5.8,8.1,26,0.00,,---,0.00,VWS V12.07,2013-04-18 12:56:00,
2013-04-18 09:02:00,52.2,18.3,17.72,East,89,2.7,5.8,26,0.00,,---,0.00,VWS V12.07,2013-04-18 13:02:00,
2013-04-18 09:08:00,52.2,18.3,17.72,ENE,58,6.3,6.3,26,0.00,,---,0.00,VWS V12.07,2013-04-18 13:08:00,
2013-04-18 09:14:00,52.0,18.2,17.72,ESE,121,7.6,12.3,26,0.00,,---,0.00,VWS V12.07,2013-04-18 13:14:00,
2013-04-18 09:20:00,52.2,18.3,17.72,NE,51,6.3,12.3,26,0.00,,---,0.00,VWS V12.07,2013-04-18 13:20:00,
2013-04-18 09:26:00,52.2,18.3,17.72,NE,53,7.6,12.3,26,0.00,,---,0.00,VWS V12.07,2013-04-18 13:26:00,
2013-04-18 09:31:00,52.2,18.3,17.72,SE,140,4.9,7.2,26,0.00,,---,0.00,VWS V12.07,2013-04-18 13:31:00,
2013-04-18 09:37:00,52.7,18.8,17.72,NE,38,6.3,7.6,26,0.00,,---,0.00,VWS V12.07,2013-04-18 13:37:00,
2013-04-18 09:43:00,53.1,19.1,17.72,ESE,112,2.7,8.1,26,0.00,,---,0.00,VWS V12.07,2013-04-18 13:43:00,
2013-04-18 09:50:00,53.4,19.4,17.72,East,85,5.4,11.9,26,0.00,,---,0.00,VWS V12.07,2013-04-18 13:50:00,
2013-04-18 09:56:00,52.9,19.0,17.72,NE,37,4.5,11.9,26,0.00,,---,0.00,VWS V12.07,2013-04-18 13:56:00,
2013-04-18 10:02:00,52.7,18.8,17.72,NE,34,3.6,10.5,26,0.00,,---,0.00,VWS V12.07,2013-04-18 14:02:00,
2013-04-18 10:08:00,53.1,19.1,17.72,NE,48,7.6,10.5,26,0.00,,---,0.00,VWS V12.07,2013-04-18 14:08:00,
2013-04-18 10:14:00,53.1,19.1,17.72,NE,44,8.3,8.3,26,0.00,,---,0.00,VWS V12.07,2013-04-18 14:14:00,
2013-04-18 10:20:00,53.8,18.8,17.72,East,82,5.8,8.3,25,0.00,,---,0.00,VWS V12.07,2013-04-18 14:20:00,
2013-04-18 10:29:00,53.4,19.4,17.72,ESE,123,2.2,2.7,26,0.00,,---,0.00,VWS V12.07,2013-04-18 14:29:00,
2013-04-18 10:35:00,53.6,18.6,17.72,East,90,7.6,8.7,25,0.00,,---,0.00,VWS V12.07,2013-04-18 14:35:00,
2013-04-18 10:44:00,54.0,19.0,17.72,NE,47,8.7,8.7,25,0.00,,---,0.00,VWS V12.07,2013-04-18 14:44:00,
2013-04-18 10:50:00,53.8,18.8,17.72,ESE,109,6.3,8.7,25,0.00,,---,0.00,VWS V12.07,2013-04-18 14:50:00,
2013-04-18 10:56:00,53.6,18.6,17.72,NE,50,5.8,8.7,25,0.00,,---,0.00,VWS V12.07,2013-04-18 14:56:00,
2013-04-18 11:02:00,53.8,18.8,17.72,ESE,104,3.1,8.1,25,0.00,,---,0.00,VWS V12.07,2013-04-18 15:02:00,
2013-04-18 11:08:00,53.6,16.7,17.72,NE,49,5.4,8.7,23,0.00,,---,0.00,VWS V12.07,2013-04-18 15:08:00,
2013-04-18 11:14:00,53.4,16.6,17.72,SE,136,2.2,4.0,23,0.00,,---,0.00,VWS V12.07,2013-04-18 15:14:00,
2013-04-18 11:20:00,53.8,16.9,17.72,ENE,57,8.1,8.7,23,0.00,,---,0.00,VWS V12.07,2013-04-18 15:20:00,
2013-04-18 11:26:00,54.0,17.0,17.72,NE,45,8.3,9.2,23,0.00,,---,0.00,VWS V12.07,2013-04-18 15:26:00,
2013-04-18 11:32:00,54.3,17.3,17.72,ENE,77,3.1,10.5,23,0.00,,---,0.00,VWS V12.07,2013-04-18 15:32:00,
2013-04-18 11:38:00,54.5,17.5,17.72,NE,43,3.6,10.5,23,0.00,,---,0.00,VWS V12.07,2013-04-18 15:38:00,
2013-04-18 11:44:00,54.9,17.8,17.72,SE,144,3.6,3.6,23,0.00,,---,0.00,VWS V12.07,2013-04-18 15:44:00,
2013-04-18 11:50:00,55.4,17.2,17.72,ENE,58,5.8,8.7,22,0.00,,---,0.00,VWS V12.07,2013-04-18 15:50:00,
2013-04-18 11:59:00,55.0,17.9,17.72,NE,52,8.1,8.7,23,0.00,,---,0.00,VWS V12.07,2013-04-18 15:59:00,
2013-04-18 12:05:00,55.8,17.5,17.72,ENE,63,8.7,10.1,22,0.00,,---,0.00,VWS V12.07,2013-04-18 16:05:00,
2013-04-18 12:10:00,55.8,17.5,17.72,SE,143,3.1,10.1,22,0.00,,---,0.00,VWS V12.07,2013-04-18 16:10:00,
2013-04-18 12:16:00,55.9,17.7,17.72,NE,46,5.8,8.3,22,0.00,,---,0.00,VWS V12.07,2013-04-18 16:16:00,
2013-04-18 12:22:00,55.9,17.7,17.72,ENE,60,2.7,8.3,22,0.00,,---,0.00,VWS V12.07,2013-04-18 16:22:00,
2013-04-18 12:28:00,56.3,18.0,17.72,ESE,102,4.9,8.3,22,0.00,,---,0.00,VWS V12.07,2013-04-18 16:28:00,
2013-04-18 12:34:00,55.9,17.7,17.72,ENE,73,4.9,8.3,22,0.00,,---,0.00,VWS V12.07,2013-04-18 16:34:00,
2013-04-18 12:40:00,55.8,17.5,17.72,East,79,4.0,8.3,22,0.00,,---,0.00,VWS V12.07,2013-04-18 16:40:00,
2013-04-18 12:46:00,55.6,17.4,17.72,NE,55,7.6,7.6,22,0.00,,---,0.00,VWS V12.07,2013-04-18 16:46:00,
2013-04-18 12:52:00,55.6,17.4,17.72,East,98,3.1,9.2,22,0.00,,---,0.00,VWS V12.07,2013-04-18 16:52:00,
2013-04-18 12:58:00,56.3,18.0,17.72,NE,48,3.1,9.2,22,0.00,,---,0.00,VWS V12.07,2013-04-18 16:58:00,
2013-04-18 13:04:00,57.4,18.9,17.72,SSE,151,4.0,6.3,22,0.00,,---,0.00,VWS V12.07,2013-04-18 17:04:00,
2013-04-18 13:10:00,58.6,19.9,17.72,ENE,62,6.3,8.1,22,0.00,,---,0.00,VWS V12.07,2013-04-18 17:10:00,
2013-04-18 13:16:00,58.8,20.1,17.72,NE,44,4.0,5.8,22,0.00,,---,0.00,VWS V12.07,2013-04-18 17:16:00,
2013-04-18 13:23:00,59.0,16.8,17.72,ENE,57,5.8,11.0,19,0.00,,---,0.00,VWS V12.07,2013-04-18 17:23:00,
2013-04-18 13:29:00,59.2,17.0,17.72,ENE,65,2.7,4.9,19,0.00,,---,0.00,VWS V12.07,2013-04-18 17:29:00,
2013-04-18 13:35:00,59.5,20.7,17.72,NE,55,5.4,6.3,22,0.00,,---,0.00,VWS V12.07,2013-04-18 17:35:00,
2013-04-18 13:41:00,59.5,17.3,17.72,ENE,72,6.3,8.7,19,0.00,,---,0.00,VWS V12.07,2013-04-18 17:41:00,
2013-04-18 13:47:00,59.2,17.0,17.72,SE,131,7.2,9.6,19,0.00,,---,0.00,VWS V12.07,2013-04-18 17:47:00,
2013-04-18 13:53:00,59.5,17.3,17.72,NE,43,6.3,13.2,19,0.00,,---,0.00,VWS V12.07,2013-04-18 17:53:00,
2013-04-18 14:04:00,59.2,17.0,17.72,ENE,74,5.4,8.7,19,0.00,,---,0.00,VWS V12.07,2013-04-18 18:04:00,
2013-04-18 14:10:00,59.7,17.4,17.72,SSE,147,3.1,8.7,19,0.00,,---,0.00,VWS V12.07,2013-04-18 18:10:00,
2013-04-18 14:16:00,59.9,17.6,17.72,NNE,31,6.3,8.7,19,0.00,,---,0.00,VWS V12.07,2013-04-18 18:16:00,
2013-04-18 14:22:00,59.5,17.3,17.72,North,3,3.1,8.7,19,0.00,,---,0.00,VWS V12.07,2013-04-18 18:22:00,
2013-04-18 14:28:00,60.1,17.7,17.72,ENE,61,6.3,8.7,19,0.00,,---,0.00,VWS V12.07,2013-04-18 18:28:00,
2013-04-18 14:34:00,60.1,17.7,17.72,East,90,6.7,8.7,19,0.00,,---,0.00,VWS V12.07,2013-04-18 18:34:00,
2013-04-18 14:40:00,59.9,17.6,17.72,NE,53,4.9,8.7,19,0.00,,---,0.00,VWS V12.07,2013-04-18 18:40:00,
2013-04-18 14:46:00,59.9,17.6,17.72,ENE,74,3.1,6.3,19,0.00,,---,0.00,VWS V12.07,2013-04-18 18:46:00,
2013-04-18 14:52:00,59.7,17.4,17.72,ENE,64,5.4,6.3,19,0.00,,---,0.00,VWS V12.07,2013-04-18 18:52:00,
2013-04-18 14:58:00,59.4,17.1,17.72,East,82,4.0,8.1,19,0.00,,---,0.00,VWS V12.07,2013-04-18 18:58:00,
2013-04-18 15:04:00,59.7,20.8,17.72,NE,52,6.3,8.1,22,0.00,,---,0.00,VWS V12.07,2013-04-18 19:04:00,
2013-04-18 15:10:00,59.7,20.8,17.72,SSW,197,2.7,8.1,22,0.00,,---,0.00,VWS V12.07,2013-04-18 19:10:00,
2013-04-18 15:16:00,60.6,21.6,17.72,NE,55,4.0,5.4,22,0.00,,---,0.00,VWS V12.07,2013-04-18 19:16:00,
2013-04-18 15:22:00,61.2,20.9,17.72,SW,231,4.9,5.4,21,0.00,,---,0.00,VWS V12.07,2013-04-18 19:22:00,
2013-04-18 15:28:00,63.1,19.0,17.72,SW,217,5.4,6.7,18,0.00,,---,0.00,VWS V12.07,2013-04-18 19:28:00,
2013-04-18 15:34:00,64.2,19.9,17.72,SW,218,4.0,6.7,18,0.00,,---,0.00,VWS V12.07,2013-04-18 19:34:00,
2013-04-18 15:40:00,64.4,20.0,17.72,SW,233,4.9,6.7,18,0.00,,---,0.00,VWS V12.07,2013-04-18 19:40:00,
2013-04-18 15:46:00,64.4,20.0,17.72,West,259,3.1,10.1,18,0.00,,---,0.00,VWS V12.07,2013-04-18 19:46:00,
2013-04-18 15:52:00,64.2,19.9,17.72,West,273,2.7,10.1,18,0.00,,---,0.00,VWS V12.07,2013-04-18 19:52:00,
2013-04-18 15:58:00,64.0,19.7,17.72,SW,226,2.7,10.1,18,0.00,,---,0.00,VWS V12.07,2013-04-18 19:58:00,
2013-04-18 16:06:00,63.9,19.6,17.72,SW,230,3.6,8.7,18,0.00,,---,0.00,VWS V12.07,2013-04-18 20:06:00,
2013-04-18 16:12:00,63.9,19.6,17.72,SW,224,2.7,8.7,18,0.00,,---,0.00,VWS V12.07,2013-04-18 20:12:00,
2013-04-18 16:18:00,63.9,19.6,17.72,SW,229,5.4,8.7,18,0.00,,---,0.00,VWS V12.07,2013-04-18 20:18:00,
2013-04-18 16:24:00,63.7,19.4,17.72,SW,224,4.0,8.7,18,0.00,,---,0.00,VWS V12.07,2013-04-18 20:24:00,
2013-04-18 16:30:00,63.5,19.3,17.72,SSW,208,5.4,8.3,18,0.00,,---,0.00,VWS V12.07,2013-04-18 20:30:00,
2013-04-18 16:39:00,63.3,19.1,17.72,SW,223,4.0,8.3,18,0.00,,---,0.00,VWS V12.07,2013-04-18 20:39:00,
2013-04-18 16:45:00,63.3,19.1,17.72,WSW,244,4.9,5.8,18,0.00,,---,0.00,VWS V12.07,2013-04-18 20:45:00,
2013-04-18 16:51:00,63.1,19.0,17.72,SW,233,3.6,11.4,18,0.00,,---,0.00,VWS V12.07,2013-04-18 20:51:00,
2013-04-18 16:59:00,62.8,18.7,17.72,West,262,5.4,5.8,18,0.00,,---,0.00,VWS V12.07,2013-04-18 20:59:00,
2013-04-18 17:05:00,62.8,18.7,17.72,WSW,242,3.1,8.7,18,0.00,,---,0.00,VWS V12.07,2013-04-18 21:05:00,
2013-04-18 17:11:00,62.6,18.5,17.72,SW,219,2.2,8.7,18,0.00,,---,0.00,VWS V12.07,2013-04-18 21:11:00,
2013-04-18 17:19:00,62.4,19.6,17.72,SE,141,5.8,8.7,19,0.00,,---,0.00,VWS V12.07,2013-04-18 21:19:00,
2013-04-18 17:25:00,62.1,19.3,17.72,SW,229,3.6,8.7,19,0.00,,---,0.00,VWS V12.07,2013-04-18 21:25:00,
2013-04-18 17:34:00,61.7,19.0,17.72,SW,227,2.7,6.3,19,0.00,,---,0.00,VWS V12.07,2013-04-18 21:34:00,
2013-04-18 17:40:00,61.5,18.9,17.72,SW,235,2.7,8.1,19,0.00,,---,0.00,VWS V12.07,2013-04-18 21:40:00,
2013-04-18 17:48:00,61.2,18.6,17.72,WNW,289,7.2,7.2,19,0.00,,---,0.00,VWS V12.07,2013-04-18 21:48:00,
2013-04-18 17:54:00,60.6,18.2,17.72,WSW,257,5.8,12.3,19,0.00,,---,0.00,VWS V12.07,2013-04-18 21:54:00,
2013-04-18 18:00:00,60.3,17.9,17.72,SW,228,4.0,4.9,19,0.00,,---,0.00,VWS V12.07,2013-04-18 22:00:00,
2013-04-18 18:06:00,60.1,17.7,17.72,SW,228,3.6,7.6,19,0.00,,---,0.00,VWS V12.07,2013-04-18 22:06:00,
2013-04-18 18:12:00,59.7,17.4,17.72,SW,228,3.6,10.5,19,0.00,,---,0.00,VWS V12.07,2013-04-18 22:12:00,
2013-04-18 18:18:00,59.7,17.4,17.72,WSW,256,4.5,5.4,19,0.00,,---,0.00,VWS V12.07,2013-04-18 22:18:00,
2013-04-18 18:24:00,59.5,17.3,17.72,SW,236,5.4,5.4,19,0.00,,---,0.00,VWS V12.07,2013-04-18 22:24:00,
2013-04-18 18:30:00,59.4,17.1,17.72,SW,224,2.2,3.6,19,0.00,,---,0.00,VWS V12.07,2013-04-18 22:30:00,
2013-04-18 18:36:00,59.4,17.1,17.72,SW,223,3.1,6.7,19,0.00,,---,0.00,VWS V12.07,2013-04-18 22:36:00,
2013-04-18 18:42:00,59.2,17.0,17.72,SE,132,4.0,6.7,19,0.00,,---,0.00,VWS V12.07,2013-04-18 22:42:00,
2013-04-18 18:48:00,59.0,16.8,17.72,WSW,255,3.1,5.8,19,0.00,,---,0.00,VWS V12.07,2013-04-18 22:48:00,
2013-04-18 18:56:00,58.8,16.7,17.72,SSW,205,5.4,7.6,19,0.00,,---,0.00,VWS V12.07,2013-04-18 22:56:00,
2013-04-18 19:02:00,58.8,16.7,17.72,SW,229,0.0,4.0,19,0.00,,---,0.00,VWS V12.07,2013-04-18 23:02:00,
2013-04-18 19:08:00,58.6,16.5,17.72,SW,226,4.5,5.4,19,0.00,,---,0.00,VWS V12.07,2013-04-18 23:08:00,
2013-04-18 19:14:00,58.5,16.4,17.72,SW,225,5.4,5.4,19,0.00,,---,0.00,VWS V12.07,2013-04-18 23:14:00,
2013-04-18 19:20:00,58.3,16.2,17.72,WSW,239,2.2,5.8,19,0.00,,---,0.00,VWS V12.07,2013-04-18 23:20:00,
2013-04-18 19:26:00,58.1,16.1,17.72,WSW,251,2.2,7.2,19,0.00,,---,0.00,VWS V12.07,2013-04-18 23:26:00,
2013-04-18 19:32:00,58.1,16.1,17.72,WSW,237,3.6,5.4,19,0.00,,---,0.00,VWS V12.07,2013-04-18 23:32:00,
2013-04-18 19:40:00,58.1,16.1,17.72,SSW,210,0.0,5.4,19,0.00,,---,0.00,VWS V12.07,2013-04-18 23:40:00,
2013-04-18 19:46:00,58.1,16.1,17.72,SW,229,2.7,4.9,19,0.00,,---,0.00,VWS V12.07,2013-04-18 23:46:00,
2013-04-18 19:52:00,57.9,15.9,17.72,SSW,201,2.7,5.8,19,0.00,,---,0.00,VWS V12.07,2013-04-18 23:52:00,
2013-04-18 19:58:00,57.7,15.8,17.72,SE,133,4.0,6.3,19,0.00,,---,0.00,VWS V12.07,2013-04-18 23:58:00,
2013-04-18 20:04:00,57.6,15.6,17.72,WSW,245,3.1,8.7,19,0.00,,---,0.00,VWS V12.07,2013-04-19 00:04:00,
2013-04-18 20:10:00,57.4,15.5,17.72,SSW,195,3.1,8.7,19,0.00,,---,0.00,VWS V12.07,2013-04-19 00:10:00,
2013-04-18 20:16:00,57.2,15.3,17.72,SW,229,3.6,5.4,19,0.00,,---,0.00,VWS V12.07,2013-04-19 00:16:00,
2013-04-18 20:22:00,57.0,16.4,17.72,SW,227,5.8,8.1,20,0.00,,---,0.00,VWS V12.07,2013-04-19 00:22:00,
2013-04-18 20:28:00,56.8,16.2,17.72,WSW,245,6.3,8.7,20,0.00,,---,0.00,VWS V12.07,2013-04-19 00:28:00,
2013-04-18 20:34:00,56.7,16.1,17.72,WSW,249,6.3,6.7,20,0.00,,---,0.00,VWS V12.07,2013-04-19 00:34:00,
2013-04-18 20:39:00,56.5,15.9,17.72,SSW,211,5.4,8.3,20,0.00,,---,0.00,VWS V12.07,2013-04-19 00:39:00,
2013-04-18 20:45:00,56.3,18.0,17.72,South,185,4.0,5.4,22,0.00,,---,0.00,VWS V12.07,2013-04-19 00:45:00,
2013-04-18 20:51:00,56.3,18.0,17.72,WSW,244,3.1,8.3,22,0.00,,---,0.00,VWS V12.07,2013-04-19 00:51:00,
2013-04-18 20:57:00,56.1,17.8,17.72,SW,214,4.0,8.3,22,0.00,,---,0.00,VWS V12.07,2013-04-19 00:57:00,
2013-04-18 21:03:00,55.9,17.7,17.72,WSW,251,2.7,6.3,22,0.00,,---,0.00,VWS V12.07,2013-04-19 01:03:00,
2013-04-18 21:09:00,55.8,17.5,17.72,SSW,200,2.7,7.2,22,0.00,,---,0.00,VWS V12.07,2013-04-19 01:09:00,
2013-04-18 21:15:00,55.6,17.4,17.72,South,172,3.1,5.8,22,0.00,,---,0.00,VWS V12.07,2013-04-19 01:15:00,
2013-04-18 21:21:00,55.4,20.2,17.72,SE,124,3.6,7.2,25,0.00,,---,0.00,VWS V12.07,2013-04-19 01:21:00,
2013-04-18 21:27:00,55.2,20.0,17.72,SSW,197,3.1,7.2,25,0.00,,---,0.00,VWS V12.07,2013-04-19 01:27:00,
2013-04-18 21:33:00,55.0,19.9,17.72,SW,223,4.0,10.1,25,0.00,,---,0.00,VWS V12.07,2013-04-19 01:33:00,
2013-04-18 21:40:00,55.0,19.9,17.72,West,260,3.6,10.1,25,0.00,,---,0.00,VWS V12.07,2013-04-19 01:40:00,
2013-04-18 21:46:00,54.9,19.7,17.72,WSW,242,3.1,6.3,25,0.00,,---,0.00,VWS V12.07,2013-04-19 01:46:00,
2013-04-18 21:54:00,54.7,19.6,17.72,WSW,249,3.1,6.3,25,0.00,,---,0.00,VWS V12.07,2013-04-19 01:54:00,
2013-04-18 22:00:00,54.7,20.5,17.72,West,260,2.7,6.3,26,0.00,,---,0.00,VWS V12.07,2013-04-19 02:00:00,
2013-04-18 22:06:00,54.7,20.5,17.72,WSW,256,3.6,6.3,26,0.00,,---,0.00,VWS V12.07,2013-04-19 02:06:00,
2013-04-18 22:12:00,54.7,20.5,17.72,SW,229,4.0,6.3,26,0.00,,---,0.00,VWS V12.07,2013-04-19 02:12:00,
2013-04-18 22:18:00,54.7,20.5,17.72,West,265,5.4,5.4,26,0.00,,---,0.00,VWS V12.07,2013-04-19 02:18:00,
2013-04-18 22:24:00,54.7,20.5,17.72,SSW,199,0.0,6.3,26,0.00,,---,0.00,VWS V12.07,2013-04-19 02:24:00,
2013-04-18 22:30:00,54.7,20.5,17.72,SW,219,2.2,4.9,26,0.00,,---,0.00,VWS V12.07,2013-04-19 02:30:00,
2013-04-18 22:36:00,54.7,20.5,17.72,WSW,246,3.1,6.3,26,0.00,,---,0.00,VWS V12.07,2013-04-19 02:36:00,
2013-04-18 22:42:00,54.7,20.5,17.72,WSW,238,6.3,6.3,26,0.00,,---,0.00,VWS V12.07,2013-04-19 02:42:00,
2013-04-18 22:48:00,54.5,20.3,17.72,South,183,0.0,6.3,26,0.00,,---,0.00,VWS V12.07,2013-04-19 02:48:00,
2013-04-18 22:54:00,54.5,20.3,17.72,SW,217,0.0,6.3,26,0.00,,---,0.00,VWS V12.07,2013-04-19 02:54:00,
2013-04-18 23:00:00,54.5,20.3,17.72,SW,219,3.6,4.0,26,0.00,,---,0.00,VWS V12.07,2013-04-19 03:00:00,
2013-04-18 23:06:00,54.5,20.3,17.72,SW,233,0.0,5.8,26,0.00,,---,0.00,VWS V12.07,2013-04-19 03:06:00,
2013-04-18 23:12:00,54.5,20.3,17.72,SSW,205,4.0,7.2,26,0.00,,---,0.00,VWS V12.07,2013-04-19 03:12:00,
2013-04-18 23:18:00,54.3,20.2,17.72,SW,221,0.0,4.0,26,0.00,,---,0.00,VWS V12.07,2013-04-19 03:18:00,
2013-04-18 23:24:00,54.3,21.1,17.72,SW,229,5.8,6.3,27,0.00,,---,0.00,VWS V12.07,2013-04-19 03:24:00,
2013-04-18 23:30:00,54.3,21.1,17.72,SW,222,3.1,5.8,27,0.00,,---,0.00,VWS V12.07,2013-04-19 03:30:00,
2013-04-18 23:36:00,54.3,21.1,17.72,SSE,161,2.2,5.8,27,0.00,,---,0.00,VWS V12.07,2013-04-19 03:36:00,
2013-04-18 23:42:00,54.3,21.9,17.72,SW,227,3.1,6.7,28,0.00,,---,0.00,VWS V12.07,2013-04-19 03:42:00,
2013-04-18 23:48:00,54.3,21.9,17.72,SW,229,2.7,4.9,28,0.00,,---,0.00,VWS V12.07,2013-04-19 03:48:00,
2013-04-18 23:53:00,54.3,21.9,17.72,SE,146,3.1,6.3,28,0.00,,---,0.00,VWS V12.07,2013-04-19 03:53:00,
2013-04-18 23:59:00,54.3,21.9,17.72,South,187,3.1,3.1,28,0.00,,---,0.00,VWS V12.07,2013-04-19 03:59:00,